Theta_e
303 303 303 302 303 303 303 303 303 303 303 304 304 304 304 305 305 305 305 306 306 308 308 308 308 311 317 319 317 315 314 315 316 318 321 324 319 320 320 322 323 322 323 323 323 326 329 331 333 338 341 340 344 345 343 346 341 339 351 350 344 345 342 342 342 340 344 347 350 352 352 355 354 354 351 351 352 352 354 354 354 353 351 350 351 350 351 352
302 303 303 302 302 303 303 303 303 303 303 303 304 304 304 304 305 305 305 305 306 307 308 309 307 310 317 318 317 314 313 316 319 322 327 320 320 320 318 320 320 322 323 323 323 324 326 329 330 333 339 337 339 341 342 344 340 344 355 348 349 354 346 342 339 338 343 347 349 351 351 352 353 354 351 353 354 354 358 356 355 356 354 352 351 352 352 352
303 302 303 303 302 302 303 303 303 303 303 303 304 304 304 305 305 305 305 305 306 307 308 309 307 310 316 318 316 313 315 318 323 327 324 320 324 320 319 319 320 321 321 324 324 324 325 328 328 330 336 334 336 340 341 343 342 346 348 348 358 354 343 342 338 337 342 345 349 351 350 351 351 351 350 352 354 356 358 357 358 359 356 353 352 353 353 353
304 303 302 302 303 303 303 303 303 303 303 304 304 304 304 305 305 305 305 306 306 307 307 309 308 309 315 318 315 314 318 322 322 320 320 323 326 323 324 323 322 321 321 324 325 325 325 325 328 331 334 333 335 338 341 345 343 343 344 350 356 347 342 342 337 338 342 344 349 351 351 353 351 349 349 352 356 358 356 355 357 358 355 353 353 353 353 353
303 304 303 302 302 303 303 303 303 303 303 304 304 304 304 305 305 305 305 306 306 307 307 308 308 308 315 317 314 315 319 321 316 320 320 322 324 324 326 326 325 322 322 325 326 326 325 326 329 332 335 334 335 336 341 345 342 341 344 349 349 344 344 342 338 341 342 345 350 350 352 352 349 349 349 352 359 359 353 351 353 354 353 353 353 353 353 353
303 303 303 302 303 302 303 303 303 303 303 303 304 304 305 305 306 306 306 306 306 307 307 308 308 308 315 317 315 318 320 317 318 319 319 323 326 324 323 325 325 323 323 326 327 325 325 326 327 331 336 335 335 336 339 340 338 340 342 343 344 343 344 341 338 341 343 346 349 349 350 349 349 351 350 353 358 355 351 350 351 352 352 352 353 353 352 352
304 303 303 303 303 303 303 303 303 303 303 303 304 304 305 305 305 306 306 307 307 307 308 308 308 309 315 317 319 321 320 320 322 320 322 325 327 325 321 323 325 323 324 326 325 325 328 327 325 333 337 335 336 336 335 334 334 337 338 339 341 339 341 341 338 341 344 346 347 348 349 349 352 353 350 353 355 352 351 351 350 351 351 352 352 352 352 352
306 303 303 303 303 303 303 302 303 303 303 303 304 304 305 306 306 306 307 308 308 308 308 308 308 311 315 317 319 321 320 322 323 322 323 323 325 325 322 326 326 323 325 326 324 326 328 326 326 332 335 336 335 334 332 329 332 335 333 337 338 336 339 339 339 342 343 344 346 349 350 350 352 352 351 354 354 351 351 350 350 351 352 352 352 352 352 352
308 305 303 304 304 303 302 302 303 303 303 304 304 305 305 305 306 307 307 308 309 309 309 308 309 313 316 317 318 321 322 322 323 323 322 321 323 326 327 329 327 324 326 326 324 324 325 327 329 331 334 333 331 332 331 328 332 332 330 337 339 338 338 338 340 341 342 344 347 350 352 353 352 351 353 354 351 350 349 350 351 352 352 353 352 351 352 352
309 308 304 304 305 303 303 302 302 303 303 303 304 305 305 306 307 307 308 309 310 310 309 309 311 315 316 318 320 323 324 320 322 323 321 321 323 326 329 329 327 325 325 325 323 322 323 327 330 330 333 332 329 330 329 328 330 329 332 341 343 340 338 338 341 342 344 346 348 351 353 355 352 353 359 354 350 349 350 351 350 352 352 352 352 351 351 351
309 308 304 303 305 303 302 302 303 303 303 304 304 305 306 306 307 308 308 310 312 311 311 311 312 316 318 320 321 323 324 321 323 322 321 323 323 325 327 328 327 325 324 323 323 322 322 326 327 328 331 329 329 330 329 330 330 331 339 347 345 343 342 342 345 346 348 349 348 351 353 354 351 355 362 353 348 350 350 351 351 352 353 352 352 351 351 350
309 308 305 304 305 303 303 303 302 303 303 304 304 306 306 306 308 309 310 312 313 313 314 314 314 317 320 320 320 323 324 322 322 323 322 323 324 324 324 326 326 324 325 324 323 322 322 325 324 327 330 327 328 330 329 328 330 337 345 349 347 347 346 345 347 347 348 350 350 350 353 355 354 357 359 351 348 350 350 352 351 351 352 351 351 351 351 350
309 308 306 304 304 303 303 302 302 303 303 304 305 306 306 307 309 309 313 317 317 317 317 315 315 318 321 323 323 323 325 325 324 324 323 324 325 323 323 325 324 324 324 324 324 323 322 323 322 324 327 327 328 327 328 327 331 342 345 348 349 347 347 348 348 349 350 349 349 348 348 353 357 356 354 350 350 351 352 352 351 351 351 351 351 351 351 350
308 308 306 304 304 302 302 302 302 303 303 304 305 305 307 309 310 314 320 322 322 320 318 316 317 320 323 325 325 325 326 326 325 326 326 327 325 322 324 324 324 324 324 323 322 321 322 323 321 322 323 326 327 325 331 333 336 344 344 347 352 341 341 349 348 351 353 348 349 348 347 352 358 357 353 350 350 352 353 353 351 351 351 351 351 351 351 350
308 308 307 304 303 302 302 303 302 303 303 304 305 306 309 309 313 321 325 324 323 320 317 318 320 324 328 328 326 326 326 326 326 328 328 327 324 322 323 323 324 324 323 324 322 320 321 321 322 323 323 325 325 327 335 335 337 346 342 339 346 338 340 350 348 350 352 349 348 345 347 356 358 356 354 350 350 353 354 353 352 352 351 351 351 351 351 350
308 308 307 304 303 302 302 303 302 302 303 303 305 308 309 312 320 326 326 323 321 319 319 322 322 324 332 332 327 325 326 327 326 327 328 327 325 323 322 322 323 323 323 323 322 321 321 321 323 325 325 323 325 332 336 331 331 344 343 335 337 337 340 347 346 347 348 350 350 343 352 363 361 356 353 351 352 352 354 354 353 353 352 352 351 351 351 351
307 307 307 304 303 302 302 303 302 303 303 303 307 308 311 319 326 325 324 322 321 321 323 326 323 322 328 328 327 327 326 326 325 325 327 325 325 324 321 322 320 320 321 320 321 321 321 321 323 324 325 325 328 332 327 320 322 333 340 337 335 336 339 342 344 345 345 350 352 348 357 364 359 357 354 352 353 353 355 354 354 353 352 353 352 351 352 351
307 307 307 305 303 303 302 302 302 303 302 304 307 309 317 325 326 323 324 324 322 323 324 325 325 323 325 326 327 326 323 323 324 325 326 325 327 324 322 322 320 319 320 320 320 320 321 322 323 324 325 325 328 330 322 318 324 328 330 332 330 332 338 339 341 345 345 349 352 349 355 361 358 356 355 353 353 353 355 354 353 354 353 353 352 352 352 351
307 308 308 305 303 303 303 302 303 303 302 306 307 310 321 325 324 324 325 326 324 323 325 328 329 326 323 325 324 322 322 323 324 325 325 326 326 324 321 319 319 321 321 320 320 320 321 322 323 322 322 324 327 328 325 326 333 332 331 332 329 329 335 341 343 344 344 348 352 349 352 361 359 356 356 354 353 354 354 354 354 353 353 353 352 352 352 351
307 308 307 305 303 303 303 302 303 302 303 308 307 310 318 320 324 325 321 322 322 319 318 323 326 325 324 324 322 322 323 323 325 326 326 326 324 324 322 318 318 320 320 321 321 320 321 322 322 321 321 326 329 329 328 331 336 337 333 331 330 329 332 341 343 341 345 347 349 349 353 359 358 355 356 354 353 354 354 354 354 353 352 352 352 352 351 351
307 307 306 305 304 303 302 303 302 302 306 307 306 310 314 313 319 320 314 316 316 316 318 318 319 321 322 321 320 323 324 325 326 325 326 325 324 325 325 320 318 319 319 321 321 320 321 320 320 323 324 325 329 331 330 331 336 337 333 329 328 328 331 341 342 341 345 346 346 352 356 358 356 355 355 353 354 354 353 353 353 353 352 351 351 351 351 350
307 307 305 304 304 303 302 303 301 304 308 306 305 311 313 310 312 312 311 315 314 315 318 317 317 318 319 319 320 321 323 326 327 325 326 325 324 327 326 321 319 321 320 319 320 321 320 319 320 323 323 322 327 330 329 332 334 333 334 329 326 331 334 336 343 346 344 343 348 353 354 354 354 354 354 353 354 353 351 351 351 351 351 351 351 349 349 349
307 306 305 305 304 302 303 302 303 308 308 304 304 308 312 311 308 307 311 315 315 316 317 317 318 318 319 319 319 322 324 326 326 325 326 325 325 326 325 322 320 320 319 319 321 319 317 320 322 321 321 322 326 329 330 331 330 331 334 327 325 335 332 325 335 346 345 345 350 355 358 360 356 354 354 351 352 352 350 350 349 349 351 350 349 349 348 348
306 305 305 305 303 303 303 301 306 309 305 304 306 309 312 310 306 307 314 318 319 319 317 317 318 319 321 320 320 323 325 326 327 326 325 325 325 324 323 324 321 318 319 320 321 320 320 322 323 321 323 324 325 330 332 329 328 331 332 328 330 336 332 330 337 344 346 346 349 355 354 358 358 354 356 353 350 352 350 351 351 349 350 349 349 349 348 348
306 304 305 305 304 304 302 302 307 306 303 304 308 311 311 307 305 308 315 323 323 321 321 319 319 321 321 321 322 324 326 327 328 327 325 325 324 323 323 322 321 320 319 319 319 320 321 322 322 322 324 324 324 330 332 329 327 327 330 332 334 338 339 341 342 340 337 335 345 349 337 344 360 356 354 354 352 353 353 352 352 351 351 350 350 349 348 347
305 304 304 304 304 304 304 306 306 303 304 306 309 312 308 305 307 308 317 329 326 324 326 321 321 323 322 323 324 324 326 327 329 327 324 325 323 324 325 322 323 323 319 320 320 321 321 321 322 324 325 325 324 325 328 330 325 322 331 334 332 338 341 339 340 337 332 331 343 346 333 339 354 353 351 355 353 353 353 353 351 351 352 351 350 349 348 347
304 303 304 304 305 305 308 310 305 304 309 307 307 308 305 306 309 309 318 328 324 325 329 324 322 322 322 325 325 324 324 325 327 326 325 325 323 323 326 325 323 321 320 320 318 319 322 321 322 324 325 325 323 323 327 330 324 325 336 335 331 336 339 340 337 333 335 338 342 346 339 334 339 346 352 353 353 354 353 352 352 350 350 351 351 350 349 348
304 303 303 304 305 305 306 308 305 307 310 304 306 305 305 308 310 315 321 322 325 328 329 327 324 321 322 323 324 325 325 324 325 326 326 326 323 323 325 325 323 322 322 319 316 319 322 322 321 323 324 324 326 329 331 328 326 334 339 333 330 332 335 340 336 332 337 336 333 342 341 331 335 351 355 351 352 353 353 351 350 350 349 349 351 350 350 348
303 302 303 304 304 305 306 306 306 309 306 304 307 304 306 308 313 324 325 319 324 326 324 325 322 320 324 324 324 326 325 325 326 325 324 324 323 323 324 324 323 323 323 320 320 322 322 322 323 321 322 323 329 334 332 327 328 334 332 328 332 335 337 338 336 333 332 329 330 337 337 328 335 350 350 347 349 350 351 351 348 348 349 348 350 350 350 350
303 302 303 305 305 306 306 305 307 307 305 307 306 303 307 312 318 326 325 321 322 322 322 324 322 321 324 325 325 326 324 325 327 323 322 324 323 322 323 322 321 323 322 320 322 323 322 325 325 324 324 323 327 330 328 329 330 328 329 329 331 339 347 350 348 338 330 329 331 333 335 329 331 343 347 345 349 350 349 350 348 348 348 347 348 349 350 351
303 302 302 305 306 306 305 307 306 304 307 306 305 305 311 322 328 324 324 323 319 322 324 323 323 322 323 325 326 327 324 324 327 324 323 325 323 321 322 321 320 321 320 318 319 322 321 322 323 328 331 326 323 324 324 328 328 326 333 331 324 329 338 339 338 331 326 331 334 333 336 331 327 337 347 347 348 350 349 349 349 348 347 347 346 347 349 350
302 302 303 304 306 306 307 308 304 305 306 304 305 310 315 321 323 321 326 324 317 322 326 322 324 322 322 323 324 327 326 324 327 326 325 325 323 323 323 324 323 318 316 317 318 320 320 320 322 324 329 327 323 323 322 323 325 327 333 327 319 322 323 322 327 328 327 331 333 332 334 333 331 338 346 346 345 346 346 347 347 346 347 346 345 347 348 349
302 302 303 303 305 306 307 305 305 305 305 305 309 318 324 321 319 320 322 320 318 322 323 321 323 321 321 322 322 326 326 326 327 325 325 325 324 324 322 324 325 319 321 321 315 314 316 319 321 320 323 327 325 322 319 322 325 325 327 322 318 320 318 319 328 329 326 328 327 329 335 334 334 343 349 347 343 344 343 344 345 345 346 346 345 346 346 349
302 302 303 304 305 307 307 307 307 306 306 308 313 321 323 320 324 325 319 318 320 322 321 322 323 322 321 321 321 324 325 326 328 325 325 323 322 324 322 322 322 322 327 322 315 314 313 315 321 320 320 326 325 323 324 330 328 324 331 328 320 323 321 320 325 323 322 325 323 328 337 335 330 339 352 347 340 341 341 342 343 343 348 348 345 346 347 348
302 302 304 306 306 309 312 310 308 307 307 310 314 317 315 314 320 324 324 324 323 323 323 322 323 322 322 324 325 324 322 325 327 324 324 323 322 323 323 322 321 323 324 319 317 317 311 313 325 324 322 323 324 325 329 331 325 322 332 326 319 326 326 320 325 329 326 324 324 328 338 342 336 338 353 359 351 344 341 343 343 344 352 353 348 348 348 348
303 304 305 307 309 313 315 312 310 307 308 310 312 313 312 313 316 322 328 327 321 323 324 322 324 321 320 325 327 324 321 323 326 324 323 324 322 323 323 322 322 321 322 320 321 319 311 315 328 325 323 324 324 327 328 325 323 323 323 321 323 330 328 321 321 327 323 319 325 328 328 332 333 337 352 360 354 346 342 344 342 345 354 354 351 349 348 349
305 307 308 308 311 315 314 313 310 307 308 307 309 313 312 312 317 323 327 323 318 321 322 320 322 321 318 320 325 325 320 321 324 323 324 324 321 322 323 323 322 320 321 321 322 323 316 318 329 326 321 323 324 327 327 325 328 325 318 322 327 325 332 332 323 323 323 320 325 326 322 322 324 336 357 354 346 347 348 346 342 346 354 353 350 349 348 349
305 306 309 311 313 315 313 312 309 307 308 305 308 318 319 312 314 319 320 318 316 318 319 318 321 322 319 318 322 324 319 319 322 322 324 323 322 324 323 323 323 321 322 321 322 325 319 316 326 329 323 324 325 322 321 323 326 326 324 327 326 319 323 327 321 321 322 322 326 324 323 326 323 332 349 344 343 348 348 348 345 346 353 351 348 348 348 349
305 309 314 314 312 312 311 309 309 309 307 304 306 314 318 313 313 317 317 315 315 315 317 319 319 319 320 320 320 322 320 319 321 320 320 321 323 325 323 323 324 321 321 321 322 327 323 316 320 328 325 322 324 319 315 317 321 324 326 326 325 324 324 322 321 322 321 323 329 324 321 327 330 337 345 343 348 348 345 351 348 344 348 346 345 347 347 348
305 311 314 313 310 311 310 310 311 309 306 307 306 308 313 314 314 317 316 315 315 315 317 321 320 319 320 321 320 321 321 321 322 320 319 322 323 323 324 322 323 322 320 320 323 326 324 318 316 325 325 319 321 321 317 318 320 320 320 319 320 322 324 323 322 324 324 326 330 325 320 328 342 349 350 346 351 349 347 353 349 343 343 343 344 346 347 348
306 310 312 313 311 312 313 314 316 312 309 313 311 308 311 313 313 315 315 316 315 314 316 318 319 319 319 318 318 320 321 322 322 320 321 322 320 321 325 323 323 323 320 320 322 321 323 322 316 317 318 316 321 328 324 323 324 322 320 319 320 320 320 318 318 322 324 323 328 327 319 326 346 353 349 347 348 347 346 349 348 345 342 342 345 346 347 348
307 308 308 312 313 312 312 317 323 321 317 319 315 312 314 315 315 315 314 315 314 313 315 315 316 317 315 315 318 320 320 321 321 321 321 322 321 322 325 325 323 323 321 321 320 322 332 331 319 314 317 321 325 328 324 322 324 324 322 323 324 323 320 313 315 322 322 320 327 326 316 326 358 363 349 348 352 348 345 346 347 346 343 344 345 345 347 348
307 308 308 310 312 311 311 318 327 326 322 321 319 318 318 317 319 317 315 315 315 313 315 315 315 317 316 316 317 319 320 320 321 322 322 323 323 323 324 324 322 322 322 320 320 327 333 328 317 314 320 324 325 327 326 324 324 321 322 325 323 322 322 319 324 329 323 320 324 321 317 334 378 382 358 354 357 354 348 345 347 347 347 347 346 347 348 348
307 307 309 311 312 312 313 319 325 327 326 323 321 321 320 319 321 320 318 318 317 315 315 314 315 315 316 316 317 320 321 319 320 322 321 323 326 325 327 326 324 322 321 322 325 325 324 325 320 314 316 318 319 322 321 321 323 323 326 328 324 325 326 325 330 327 320 321 324 320 320 335 370 381 362 356 358 355 349 345 344 346 348 348 347 349 349 348
308 310 310 312 313 313 315 317 318 321 325 322 320 322 321 321 322 322 321 321 319 317 316 316 317 316 316 317 318 321 322 320 320 323 325 326 329 333 334 332 330 325 321 329 334 323 322 329 324 314 314 316 315 317 319 322 326 328 329 327 324 327 324 324 326 319 317 325 325 323 327 337 355 364 351 351 358 358 355 347 343 346 348 348 348 349 349 350
310 315 316 314 314 314 316 315 312 315 320 320 322 324 321 322 324 322 321 322 321 319 318 318 319 317 317 317 318 320 323 322 322 326 329 328 331 339 339 336 336 331 329 337 338 332 335 335 325 318 317 317 317 323 334 337 326 320 324 324 325 326 323 327 325 317 324 330 326 335 341 330 336 350 345 349 357 357 357 350 344 348 347 348 350 348 349 348
310 316 316 315 317 317 315 314 312 313 316 317 322 325 321 321 324 323 323 324 323 321 320 320 319 319 320 320 318 319 322 323 324 325 327 329 337 343 337 335 338 340 347 346 336 337 338 327 323 327 323 320 322 328 336 336 322 318 323 322 323 327 324 324 320 321 335 327 320 347 359 328 328 350 348 352 355 353 355 351 345 348 347 346 347 347 349 349
313 316 313 312 316 317 316 314 313 313 315 316 320 323 320 320 322 322 322 321 320 320 321 323 321 319 321 320 319 321 324 326 328 329 331 336 344 343 336 336 336 339 348 343 332 336 332 321 324 328 322 323 325 324 329 332 326 325 326 322 323 326 322 321 321 328 338 323 316 346 360 334 334 350 347 348 351 349 351 348 343 343 343 344 345 347 350 349
310 312 310 310 313 313 313 312 313 315 315 316 321 324 322 322 322 320 318 318 320 320 321 327 329 324 324 325 323 324 327 328 328 332 340 342 340 339 339 339 336 334 336 334 335 336 327 327 334 326 319 323 323 323 327 327 325 325 326 326 325 324 323 322 323 330 334 326 324 343 352 342 340 345 342 342 344 344 346 344 341 341 343 346 348 348 349 348
307 308 309 310 311 311 311 311 313 315 313 315 323 325 320 321 322 318 315 317 321 322 323 330 333 328 327 331 328 325 328 333 332 334 343 341 336 341 344 339 335 335 332 331 337 333 324 334 345 329 318 321 322 323 325 322 323 322 321 326 326 323 325 322 322 331 331 328 333 341 342 342 341 345 347 346 346 347 346 346 344 343 346 348 348 347 347 346
305 305 307 309 310 311 313 313 313 314 314 317 322 320 315 317 318 315 315 316 317 321 326 328 328 327 327 332 334 329 327 331 332 331 334 332 330 337 342 339 334 334 336 336 336 335 331 337 343 328 317 318 321 323 323 321 322 318 316 322 323 321 323 321 324 335 332 329 337 336 332 336 342 347 348 347 347 345 344 348 348 345 347 348 346 347 347 348
304 305 306 308 310 311 312 313 312 312 314 316 317 314 311 313 314 313 317 320 316 318 322 321 321 325 329 332 334 328 322 323 325 324 326 327 327 329 331 333 331 329 336 340 338 342 338 332 334 329 319 319 321 321 322 320 316 316 319 322 321 323 326 323 327 338 337 334 335 330 328 337 346 345 343 345 346 343 341 346 346 346 350 349 347 348 349 349
Wind_Speed
21 22 22 22 23 24 25 25 25 25 25 25 25 25 24 24 24 24 24 24 24 24 24 24 25 23 19 19 21 22 23 23 24 18 11 23 30 25 23 20 15 12 10 9 12 11 7 5 7 12 11 5 2 1 4 5 2 3 2 2 2 4 5 6 8 7 5 7 10 8 7 9 9 6 4 7 7 8 7 2 4 4 5 9 13 22 26 26
20 22 23 23 24 24 25 26 26 26 26 26 26 26 26 25 25 24 24 24 24 24 24 23 24 22 18 18 20 21 22 22 19 16 21 28 28 27 27 23 20 18 12 10 15 14 8 6 8 9 7 2 1 1 2 2 3 3 3 2 3 5 5 6 9 7 6 10 11 9 9 8 8 9 6 7 7 7 6 3 4 7 7 11 17 24 24 24
20 21 23 24 24 25 26 26 27 27 27 27 27 27 27 26 26 25 25 25 24 24 23 23 23 21 17 17 18 19 19 15 10 13 17 14 10 14 18 19 20 20 16 11 12 14 12 10 11 9 3 1 1 1 1 1 3 3 3 2 6 6 5 5 10 9 7 12 12 10 9 5 5 8 6 9 10 6 6 6 6 7 8 11 15 20 22 22
22 21 23 24 25 26 26 26 27 27 28 28 28 28 28 28 27 26 26 25 25 24 23 22 22 20 17 16 16 16 13 8 6 6 7 5 3 2 1 7 16 20 17 12 8 12 14 10 9 6 3 1 2 1 1 2 2 2 3 5 6 4 4 5 11 10 8 13 13 11 9 6 5 5 6 12 11 4 6 9 10 13 14 14 14 17 21 19
22 22 23 24 26 26 26 27 27 27 28 28 29 29 29 29 28 28 28 26 26 25 24 22 21 19 15 14 14 12 8 4 4 3 10 11 10 8 6 6 10 18 16 11 9 12 12 7 6 4 4 2 1 2 2 4 3 2 3 6 7 4 4 6 10 11 10 11 11 13 11 8 7 5 9 14 10 5 8 10 10 15 17 17 17 17 18 17
23 23 23 25 26 27 27 27 28 28 29 29 30 30 30 30 29 29 29 28 27 26 25 23 20 17 13 13 10 5 1 2 10 13 17 20 17 15 14 13 11 16 17 13 13 13 9 5 5 3 3 2 3 3 4 4 3 2 4 5 8 7 6 6 10 13 13 12 12 14 10 9 8 5 9 12 5 4 5 9 10 12 17 20 19 18 16 15
24 24 24 26 27 27 28 28 28 29 29 30 31 31 31 31 30 30 30 29 28 26 25 23 19 14 11 10 6 1 3 7 20 21 18 18 16 14 12 14 13 19 20 15 13 10 6 6 5 5 5 2 4 4 4 2 1 3 5 6 7 10 9 8 12 14 16 16 12 10 10 12 11 7 9 8 3 1 7 10 10 11 17 19 17 16 16 15
25 25 25 26 27 28 28 29 29 30 30 31 32 32 31 31 31 31 30 29 28 27 25 22 16 10 8 6 2 2 1 10 19 14 12 17 15 12 7 9 16 24 22 17 13 9 7 8 6 5 4 3 4 4 2 1 1 4 6 6 5 7 8 10 13 14 14 11 9 11 12 12 8 7 9 5 0 5 10 12 11 13 15 15 14 14 14 14
25 25 26 27 28 29 29 30 31 31 31 32 32 32 32 32 32 31 30 29 28 25 23 20 12 5 4 2 3 3 7 8 8 6 14 20 18 11 3 11 21 25 20 17 15 10 6 6 6 5 5 4 4 4 2 3 2 6 4 2 2 5 9 12 13 14 12 8 10 13 10 6 5 8 5 3 5 8 11 13 12 13 14 13 13 13 13 12
26 26 27 28 28 29 30 31 31 32 33 33 33 33 32 32 32 31 29 29 27 23 21 15 7 4 3 2 4 3 9 7 8 9 15 20 17 8 4 14 23 23 16 13 14 10 5 6 6 5 5 3 4 3 2 4 4 5 1 4 5 7 8 12 13 11 10 8 12 15 8 5 7 6 2 4 8 10 12 14 12 13 13 13 12 11 12 12
27 27 28 29 29 29 30 32 32 33 33 33 34 33 32 33 32 30 28 28 25 20 16 11 5 4 4 4 4 6 10 8 10 13 16 20 16 6 3 13 20 19 16 11 10 12 8 7 6 3 2 2 3 1 1 4 4 1 5 8 7 8 8 10 13 11 9 6 9 12 8 5 4 2 3 7 10 12 14 14 13 13 12 12 12 11 10 11
27 27 29 31 30 31 32 33 33 33 33 33 33 32 33 32 30 29 28 25 20 15 11 7 3 6 4 2 7 13 15 14 15 17 19 19 14 5 2 10 17 16 15 10 7 14 11 7 6 4 2 3 2 0 2 5 1 2 7 8 6 8 7 6 9 11 10 6 9 13 8 3 7 5 4 9 11 13 13 14 13 12 11 10 11 10 9 12
28 28 30 31 31 32 33 34 35 34 34 33 33 33 32 30 29 28 25 20 14 10 6 2 4 7 3 2 9 16 19 17 18 20 19 16 10 3 3 6 12 12 13 11 9 15 13 7 5 2 3 4 1 2 0 1 4 4 3 7 5 6 4 4 3 7 8 7 12 13 3 6 9 6 7 11 12 13 12 12 13 11 10 9 10 9 9 12
28 28 30 31 32 33 35 36 36 36 35 33 34 33 29 29 29 24 18 13 7 4 1 2 5 7 4 6 13 16 15 13 15 17 15 12 6 5 7 6 7 10 11 10 9 10 13 8 3 2 2 2 2 1 4 5 5 4 3 4 3 4 5 5 3 7 7 6 9 8 2 7 8 7 9 11 13 15 13 12 12 11 10 9 9 10 9 11
28 29 30 31 32 34 36 36 37 37 35 34 34 30 28 28 23 16 10 6 4 4 4 5 6 5 1 9 13 11 8 8 10 12 11 9 8 6 8 10 8 8 11 11 7 5 8 6 3 2 2 1 3 4 3 4 4 2 4 2 1 3 5 5 4 7 8 8 8 2 1 5 6 7 10 11 12 14 14 13 12 11 11 11 9 10 9 10
29 30 30 32 33 34 36 37 38 37 36 36 32 28 27 23 14 8 5 3 5 6 6 4 5 4 1 6 6 6 4 4 9 12 11 7 8 5 10 12 9 8 9 10 9 4 4 5 2 2 2 1 4 5 3 4 3 3 3 5 4 3 5 4 4 6 6 9 9 4 3 2 3 7 10 11 12 12 12 12 12 12 11 11 10 9 9 9
31 30 31 33 34 35 36 37 38 37 37 35 30 27 22 13 6 4 2 5 5 6 6 3 4 2 4 6 6 6 3 5 11 14 16 15 10 7 11 8 5 7 6 4 7 4 1 2 1 1 2 3 3 5 4 2 1 2 2 4 2 2 6 5 4 6 4 8 10 5 3 2 2 9 12 12 13 12 11 11 12 11 10 10 9 9 9 10
31 32 32 32 35 36 36 37 38 37 38 33 28 24 14 4 3 1 3 5 4 4 3 2 3 1 5 5 3 5 6 11 17 17 18 14 7 10 7 5 5 7 5 2 2 3 1 0 2 2 1 3 3 5 4 4 5 6 4 4 3 3 6 8 7 9 9 9 8 4 4 4 3 9 12 12 13 12 12 12 11 11 11 10 9 10 10 11
31 32 31 32 36 37 37 38 36 37 38 30 24 18 6 3 4 1 1 3 3 1 1 2 3 0 6 7 6 10 13 14 15 13 10 5 3 8 5 5 7 8 5 2 1 3 3 2 3 4 3 4 5 6 7 8 9 10 7 6 7 5 7 11 6 7 13 11 9 8 6 5 7 10 12 12 13 12 11 10 10 10 10 9 9 9 10 11
32 33 31 34 37 36 39 38 36 38 32 24 24 14 3 5 4 2 4 3 4 6 6 7 5 4 9 10 9 11 13 9 6 5 3 2 4 6 3 4 5 5 4 5 3 2 4 4 3 5 7 7 9 9 8 7 8 9 7 5 7 6 7 8 3 2 10 10 9 8 4 6 10 12 13 12 12 11 11 11 10 11 10 9 10 10 11 11
33 33 33 36 37 38 40 36 37 36 22 18 22 9 2 3 2 3 6 6 9 9 11 14 11 10 13 13 11 6 7 4 5 6 7 4 5 6 1 2 5 1 3 4 2 1 4 6 7 8 10 10 9 9 7 7 7 6 6 5 5 5 6 6 2 2 6 6 5 4 5 6 8 10 11 12 13 14 15 14 13 13 11 10 11 12 12 10
33 33 35 37 38 40 38 36 38 27 12 17 18 4 2 2 2 4 3 6 9 10 14 15 11 13 17 20 20 7 1 4 7 8 7 5 5 5 2 3 6 4 3 1 2 3 4 6 9 9 8 7 5 6 8 7 6 5 4 5 4 4 4 4 4 5 6 5 4 3 4 3 3 7 10 12 15 14 14 14 13 13 12 11 12 12 12 10
33 34 36 37 41 41 37 38 32 14 12 22 14 1 2 2 8 8 2 4 9 7 10 12 10 11 12 15 15 9 5 6 7 9 5 9 4 5 5 4 6 5 3 4 5 6 5 6 8 7 7 8 4 4 8 6 4 4 4 5 3 3 3 3 4 7 6 2 1 5 2 3 1 4 7 11 12 9 9 10 9 10 12 13 14 13 12 12
34 35 36 38 42 40 38 36 19 6 21 27 9 4 4 4 15 10 2 3 7 5 8 11 8 8 9 9 9 13 7 7 7 8 8 11 4 3 6 5 6 5 4 6 6 6 6 6 5 9 8 9 6 4 7 5 2 3 5 6 4 4 5 3 4 7 4 2 2 6 4 5 4 7 8 9 9 8 7 9 9 10 12 12 12 11 11 13
35 36 37 39 40 41 40 26 8 13 32 22 3 7 2 13 19 6 2 2 4 6 4 6 4 5 8 5 10 11 4 4 7 7 8 13 8 3 3 4 5 6 6 6 6 5 7 5 6 10 7 8 7 5 6 7 4 3 5 8 8 8 6 4 8 9 4 2 3 5 2 6 4 8 10 7 8 11 8 9 12 11 11 11 10 11 12 12
36 37 39 40 39 43 34 12 9 26 28 7 7 2 8 19 17 1 3 4 4 5 2 1 2 3 4 4 7 5 2 4 9 10 8 11 13 7 3 2 1 5 7 6 3 3 5 4 6 8 7 8 7 5 6 8 6 2 6 10 10 8 8 8 10 8 4 4 5 6 5 5 4 6 10 8 9 13 10 11 13 12 12 12 11 12 12 12
37 37 40 39 37 37 22 7 20 25 10 2 3 9 16 20 10 3 2 5 4 4 1 2 1 1 2 5 7 6 2 5 4 8 9 11 10 5 5 4 2 3 4 4 2 3 5 7 6 6 6 7 6 5 6 8 8 3 6 9 10 9 9 11 11 7 5 2 1 4 4 2 5 6 8 10 9 11 12 13 13 13 14 14 14 14 13 14
39 39 40 38 37 31 14 12 19 12 5 9 12 14 20 17 2 5 3 3 4 3 1 2 2 2 0 3 6 5 4 3 1 4 10 15 9 3 5 7 6 6 4 5 5 4 4 9 9 9 6 4 5 6 8 10 6 6 6 8 9 9 9 10 10 6 3 4 1 4 3 2 6 6 2 8 10 11 15 18 17 16 16 16 16 16 15 15
41 39 39 39 37 28 12 10 14 11 14 17 13 18 23 11 2 4 4 1 4 2 1 1 1 0 2 2 4 5 4 1 2 2 5 11 7 3 5 7 8 8 6 6 7 4 3 7 9 9 6 6 6 5 10 12 6 5 6 6 5 5 5 6 7 4 3 3 5 7 6 4 6 5 2 6 9 13 16 17 18 17 16 16 16 16 16 14
42 40 39 38 33 24 12 14 20 16 14 13 15 23 20 4 4 3 1 3 3 3 2 1 1 1 2 3 2 5 4 4 3 1 3 3 4 3 3 3 6 6 3 3 6 5 4 2 5 7 6 7 7 5 8 13 9 5 7 6 6 5 5 3 1 3 4 1 6 10 12 9 6 5 4 6 10 16 16 14 15 15 15 17 16 16 16 14
44 41 39 36 31 20 9 12 18 12 7 10 19 20 9 1 3 3 4 4 3 3 1 1 1 2 4 3 2 5 5 5 4 2 2 2 4 3 2 2 2 3 3 3 3 4 5 3 2 3 4 6 6 4 5 7 6 5 5 5 4 2 3 4 4 4 3 4 7 9 10 8 7 6 6 11 15 17 16 15 16 17 18 19 17 16 16 15
44 41 38 36 29 17 12 14 15 10 9 12 16 10 2 1 1 3 4 4 3 2 0 1 2 3 4 2 1 3 3 4 3 2 4 4 4 5 5 5 4 4 4 4 3 3 4 5 5 5 3 6 7 4 2 1 1 5 4 5 4 2 2 1 1 1 3 6 6 5 8 5 7 8 8 12 14 14 15 16 18 19 20 19 17 16 14 13
45 42 37 33 26 20 22 23 21 18 16 12 8 4 4 2 4 5 4 2 2 1 1 2 4 4 3 4 3 4 2 4 5 2 4 5 4 5 5 5 8 7 3 4 5 3 3 5 5 5 4 3 8 6 3 2 3 6 6 5 5 3 2 3 3 1 2 6 5 3 8 4 5 7 9 13 16 17 16 18 18 15 14 15 15 15 13 13
45 40 35 31 25 21 19 18 20 17 12 5 2 3 3 4 5 5 6 6 4 3 2 1 6 7 3 1 3 3 1 3 4 4 3 4 4 5 4 4 6 7 4 3 4 5 4 5 6 7 4 4 7 7 7 6 5 6 6 6 5 5 5 4 4 3 4 3 2 2 5 5 4 4 8 12 15 15 14 14 12 7 5 9 10 11 12 12
43 37 33 27 19 14 11 10 13 8 8 5 4 2 5 5 3 2 5 5 2 4 5 4 5 6 4 3 3 1 2 3 1 4 4 4 5 5 5 5 6 5 5 4 3 3 5 6 7 6 5 6 7 6 7 8 4 5 3 5 5 6 6 3 3 6 5 2 0 2 3 5 5 6 7 4 6 9 11 10 9 6 6 9 9 11 12 12
42 36 27 18 13 13 12 10 7 12 13 5 4 5 5 4 4 3 3 3 1 1 4 6 2 1 3 4 3 3 2 2 3 1 2 4 4 5 5 5 7 9 7 6 3 1 4 6 6 4 4 6 8 7 7 7 5 3 3 4 5 6 7 3 2 2 3 2 3 2 3 3 2 7 8 4 6 9 8 8 10 9 7 10 10 12 13 13
38 30 18 14 15 15 13 8 10 17 10 4 5 6 4 4 5 4 3 1 1 1 3 2 1 2 2 2 2 3 4 4 3 2 2 2 3 5 6 4 5 10 10 7 4 3 4 5 7 6 8 8 7 7 6 7 7 6 4 6 3 3 3 3 2 1 3 2 4 2 5 4 2 3 7 4 8 12 9 9 10 7 8 10 12 12 14 15
30 20 11 12 16 13 7 5 16 15 5 3 6 5 3 4 4 4 3 0 1 2 3 2 2 2 2 1 2 2 4 4 3 3 2 3 3 4 7 4 5 10 12 9 5 3 5 4 7 6 10 6 4 6 6 6 4 4 4 6 5 3 2 1 3 2 1 3 3 2 3 3 5 5 5 6 11 13 12 10 8 9 11 12 12 13 15 14
20 8 4 8 12 9 3 12 15 8 3 5 6 4 4 5 4 4 3 0 2 2 1 4 3 2 2 2 3 2 2 1 3 1 1 2 3 4 5 4 5 9 11 10 6 3 4 4 6 4 6 3 3 6 8 8 3 2 3 4 2 3 5 3 3 4 4 4 2 3 2 3 6 7 7 11 13 13 13 10 8 11 14 14 13 12 12 13
9 2 3 5 9 13 12 11 5 1 2 5 5 4 3 3 4 5 4 3 2 2 2 4 3 3 3 2 3 2 2 4 3 1 2 3 3 4 4 4 3 5 10 12 9 4 3 4 5 4 2 2 2 6 9 9 5 3 4 5 2 1 3 2 1 3 4 4 3 3 3 5 7 6 9 13 13 13 14 11 11 12 14 14 13 11 11 12
5 1 3 1 10 13 9 4 1 2 3 2 3 3 2 2 3 4 4 4 3 3 3 3 4 4 3 2 3 2 1 3 3 3 3 4 3 4 5 6 5 3 5 7 8 6 3 4 5 4 2 3 6 7 8 9 9 8 7 6 6 4 3 2 4 1 2 3 4 5 4 7 7 5 9 12 11 11 13 12 12 12 13 13 10 11 13 13
2 1 5 1 6 4 6 1 2 1 2 3 3 3 3 3 2 3 4 3 3 4 3 3 5 4 4 4 4 4 3 3 4 4 4 5 6 5 5 5 6 6 5 5 9 8 5 4 5 6 5 6 9 7 5 7 7 7 6 6 8 6 6 6 6 3 1 1 2 3 3 7 7 6 8 9 7 8 9 10 10 10 9 9 9 11 12 12
1 5 12 8 6 4 4 1 3 2 3 4 4 4 3 2 2 2 3 2 2 3 2 3 4 5 5 6 5 5 5 4 5 7 5 4 5 7 8 8 7 5 5 5 7 7 4 3 5 5 4 4 7 6 2 3 4 3 5 5 7 7 7 7 5 5 4 3 3 2 3 6 6 3 4 5 5 6 7 9 11 10 6 6 9 10 10 12
2 5 8 7 5 5 2 2 3 3 3 4 5 5 4 3 3 4 4 3 3 3 2 3 4 5 6 6 5 7 6 4 5 6 5 4 5 8 10 10 7 4 5 7 6 6 4 3 4 4 3 4 5 5 5 3 4 4 4 4 6 7 6 3 2 3 4 5 6 5 4 6 6 3 2 4 5 6 8 9 9 8 6 7 8 9 10 11
5 3 4 6 3 3 2 1 1 1 3 4 4 5 4 3 4 6 7 5 4 5 3 4 5 5 6 5 5 7 7 5 3 3 3 3 4 6 7 6 4 5 9 12 10 8 6 4 6 7 6 7 7 6 7 5 3 3 3 6 8 8 9 5 3 4 6 5 5 6 5 6 7 5 4 5 6 7 8 8 8 8 7 7 8 8 9 10
3 2 3 5 3 1 0 1 3 2 3 3 3 4 3 3 4 5 6 5 6 6 5 5 5 4 5 6 7 8 7 6 5 4 4 3 4 5 4 6 6 7 11 12 9 7 3 4 7 10 11 10 10 9 7 5 5 5 6 8 8 9 11 8 5 5 6 4 4 6 7 6 7 7 7 8 7 7 8 7 8 9 9 8 9 9 9 8
1 2 2 3 3 3 2 2 4 3 2 2 3 3 3 3 3 3 3 3 4 4 4 5 6 6 6 7 6 7 7 6 6 6 6 6 5 5 5 7 6 5 4 5 9 7 3 3 7 11 14 15 14 13 9 7 7 8 9 9 10 9 11 10 7 7 7 6 6 9 6 8 9 9 10 10 8 7 8 9 11 11 10 9 8 8 8 8
2 2 2 3 3 2 1 3 5 5 4 3 2 3 4 4 3 2 2 3 3 2 2 3 6 8 10 9 6 6 6 6 6 7 7 6 3 4 6 6 5 1 6 1 4 5 4 5 6 8 12 15 16 13 10 8 7 7 9 10 10 10 11 12 12 11 9 8 10 8 9 11 10 10 12 13 11 11 12 11 10 8 7 7 7 8 9 10
2 2 2 3 2 3 4 6 7 6 6 4 3 3 4 5 4 2 2 4 5 3 3 2 5 7 7 7 6 5 6 6 6 7 6 4 1 1 3 5 5 2 7 4 3 2 3 5 6 9 11 14 15 12 9 9 8 7 8 9 9 10 12 14 13 12 12 12 11 9 12 13 10 11 13 11 8 8 6 5 6 7 8 8 9 10 11 11
2 2 3 3 3 5 5 5 5 5 5 4 4 3 3 4 2 4 4 3 4 3 2 2 6 7 6 7 7 9 9 6 5 6 5 4 3 2 2 3 4 4 7 4 2 1 1 4 3 6 7 10 12 11 9 10 11 11 12 11 9 8 9 10 10 7 7 9 7 5 9 11 9 8 9 4 3 5 5 6 8 9 9 10 11 12 12 10
4 5 5 3 4 5 4 3 2 3 3 3 2 2 4 4 4 7 7 6 7 6 3 3 8 8 6 7 7 7 4 2 4 6 5 5 5 2 2 3 1 5 8 3 1 2 1 2 2 4 3 7 7 10 11 9 9 11 13 13 11 9 7 7 7 7 7 8 4 4 6 9 9 6 5 2 5 7 8 9 8 7 8 10 12 12 10 9
6 6 5 3 4 4 3 3 2 2 3 2 2 4 4 6 7 8 6 4 5 7 4 5 8 7 5 6 5 3 6 8 8 8 5 6 7 4 4 2 3 1 5 4 2 1 2 1 2 3 3 7 7 9 9 6 4 7 10 11 13 10 8 6 5 6 8 8 7 6 8 9 6 6 6 5 6 9 10 9 8 8 10 10 11 10 9 9
Wind_Direction
1 360 358 357 356 356 356 354 354 353 353 351 352 353 352 352 351 350 348 347 344 342 342 342 343 340 332 329 327 325 324 320 314 311 274 267 272 269 265 260 256 245 228 209 181 156 139 177 187 162 154 164 195 178 173 188 159 118 129 149 172 184 195 182 180 184 160 156 159 163 152 148 153 143 116 102 101 122 120 55 83 55 70 114 130 139 147 152
360 358 357 357 355 354 353 352 352 351 350 349 349 349 348 348 347 347 346 344 343 339 339 339 340 337 331 328 325 326 325 319 312 294 275 279 280 270 264 258 252 247 229 196 185 172 149 189 187 149 143 160 223 205 155 191 156 141 131 150 222 193 202 192 173 180 161 156 160 157 155 163 157 141 143 133 136 139 113 83 89 82 88 111 130 141 150 155
356 356 356 355 354 353 351 351 350 349 349 347 346 345 345 344 344 344 343 342 340 337 336 336 337 334 328 325 326 329 325 321 309 280 285 298 290 267 258 254 246 242 231 206 194 185 176 182 166 138 131 177 263 230 112 255 188 176 129 178 247 194 189 195 171 180 166 152 151 154 155 166 178 152 153 145 145 157 149 151 137 132 136 135 140 146 155 159
352 354 355 354 353 352 350 350 349 348 347 345 345 343 342 341 341 341 340 339 336 335 333 333 334 330 325 323 326 330 329 324 284 272 322 348 16 17 269 254 237 231 228 211 197 188 180 163 145 121 96 133 306 357 156 246 202 180 150 193 240 175 172 203 172 167 157 155 152 151 148 153 186 164 147 142 141 185 199 192 173 157 154 149 151 154 160 162
350 351 354 353 351 350 349 349 348 347 345 344 343 341 340 339 338 337 336 335 333 332 329 329 330 326 322 319 325 331 338 339 281 314 355 335 322 319 310 308 239 219 209 188 163 158 162 141 110 76 78 126 324 45 238 237 157 170 217 214 220 157 182 209 165 151 151 154 147 151 156 157 167 163 161 153 150 205 206 199 180 158 155 156 156 157 163 165
349 349 352 351 350 349 349 348 346 346 344 343 341 340 339 337 336 335 332 331 330 328 326 326 327 323 317 315 323 331 3 292 293 307 321 316 308 297 285 285 252 205 188 172 150 142 146 124 106 110 105 124 160 174 245 245 149 196 262 240 216 186 190 186 155 151 148 153 161 161 155 144 149 164 177 169 177 242 182 165 164 157 154 152 154 158 165 170
348 348 350 350 349 348 348 347 346 345 344 342 340 338 337 336 335 333 329 327 326 326 324 323 324 317 311 319 320 357 121 251 285 300 316 319 306 290 277 266 232 187 176 164 144 142 141 131 145 147 121 129 182 204 238 255 175 204 259 261 224 203 189 160 154 157 154 162 167 148 139 156 167 165 176 193 260 205 131 132 143 146 147 149 155 164 169 173
346 348 349 348 348 347 347 346 345 345 343 341 339 337 336 335 333 330 326 323 323 324 320 320 320 309 306 324 323 325 224 255 282 307 344 346 332 313 282 231 196 178 172 165 152 147 143 144 169 154 128 184 184 194 197 15 323 206 241 262 226 200 177 151 151 155 154 158 145 137 152 170 171 141 163 198 100 122 125 126 137 142 148 154 162 168 169 174
344 346 347 347 347 347 346 346 345 345 343 341 338 336 335 334 331 328 325 321 321 320 316 317 313 292 296 332 68 319 265 255 278 324 358 351 346 338 257 182 176 171 163 166 162 149 150 163 183 164 161 186 162 195 178 78 249 226 250 275 158 150 149 144 147 152 150 146 140 146 155 156 130 115 150 204 130 127 126 130 142 148 154 163 167 170 172 176
342 343 345 345 346 346 346 345 345 344 343 340 337 335 334 333 329 326 323 319 319 316 312 312 296 252 248 161 99 295 273 268 263 287 337 345 347 351 186 168 168 165 151 159 166 160 167 178 188 156 143 156 165 195 110 125 234 251 312 50 92 114 133 140 141 146 138 143 157 150 145 146 141 130 187 205 146 137 132 138 151 155 162 168 170 173 175 179
341 342 344 344 345 345 345 345 344 343 342 339 336 335 334 331 327 324 321 318 315 312 309 304 278 215 192 151 158 249 270 274 272 285 311 323 329 331 186 164 166 162 147 147 168 179 182 176 168 112 126 169 167 175 141 207 263 246 119 70 57 88 106 131 137 146 134 142 162 136 113 130 158 242 207 172 152 145 143 148 159 163 168 172 172 175 176 184
340 341 342 344 344 344 345 344 344 343 341 338 335 335 334 330 325 322 319 316 311 309 306 297 231 179 163 136 209 248 271 276 281 289 292 301 312 312 144 159 169 165 150 143 172 188 191 176 133 96 200 167 127 162 231 229 342 92 120 86 56 76 103 143 138 151 146 144 147 117 87 163 206 244 176 155 153 149 148 154 163 169 172 173 176 177 179 188
340 340 341 342 343 344 344 343 343 343 340 337 335 335 333 327 323 321 318 314 311 311 307 282 180 166 145 221 239 269 284 281 281 282 279 282 289 243 167 160 172 172 159 150 168 190 205 206 142 130 190 128 160 246 8 323 57 68 73 95 98 79 127 195 135 147 139 147 154 131 128 224 218 227 161 156 156 148 152 161 167 171 174 178 180 181 186 190
339 339 340 341 344 344 343 342 343 342 339 337 336 336 332 325 323 322 320 315 326 341 330 143 155 148 137 255 274 293 295 284 281 284 280 266 243 175 182 185 177 187 184 173 174 195 214 216 140 123 204 137 183 310 17 5 44 92 74 75 107 123 182 222 169 148 132 169 171 130 175 222 224 216 167 163 161 156 161 169 172 174 177 181 183 185 191 193
339 338 339 342 344 343 342 342 342 341 339 336 336 336 330 324 325 326 325 331 33 83 123 128 145 138 88 279 283 299 290 280 298 310 304 248 203 156 176 186 181 192 199 195 188 192 202 191 123 134 240 257 101 62 19 11 24 103 111 91 259 152 188 234 219 175 151 181 197 129 191 234 230 194 170 169 167 164 167 172 177 178 181 182 185 189 192 196
339 338 339 342 344 343 341 340 341 340 338 336 337 337 329 325 328 329 334 42 80 115 123 128 155 140 301 280 292 315 290 286 328 339 333 280 231 174 149 160 162 171 189 196 194 196 171 155 146 162 157 94 102 90 51 34 9 318 99 149 192 147 175 214 228 213 168 172 202 210 182 244 241 176 171 173 172 173 173 176 180 182 185 185 187 190 192 196
338 337 338 342 344 342 340 339 340 340 337 336 338 336 331 329 327 330 53 76 92 136 118 116 147 122 264 269 294 308 301 309 329 331 322 310 270 195 140 130 134 151 154 167 186 198 171 159 173 181 77 83 114 103 80 52 239 271 64 126 186 171 177 187 199 214 178 173 205 214 175 224 215 170 172 177 176 177 178 182 185 186 190 190 190 194 194 196
337 336 337 341 343 341 339 338 339 340 337 336 339 337 337 333 310 308 107 63 75 146 106 85 132 85 267 260 282 283 294 307 318 318 310 311 263 204 163 121 106 117 106 74 163 165 162 258 107 131 67 90 116 106 125 197 187 185 164 134 194 228 201 197 190 186 174 183 209 211 209 219 172 167 176 180 178 181 187 186 188 191 193 194 194 197 198 200
337 336 336 339 342 340 337 338 339 339 336 337 344 342 346 351 320 206 173 31 43 212 254 232 168 188 273 270 270 283 297 301 309 305 295 320 202 187 150 112 104 105 114 122 205 183 151 75 80 147 174 161 164 152 170 196 175 173 176 158 177 206 225 211 202 182 169 178 207 203 207 193 167 176 182 182 181 187 194 189 191 195 196 198 200 204 205 205
336 334 335 338 341 339 336 337 338 337 336 341 350 351 18 8 351 319 311 289 233 239 250 244 217 235 272 278 276 293 305 294 280 258 237 6 116 135 103 83 80 80 130 161 192 198 148 152 184 185 186 182 181 180 174 168 152 153 155 159 178 193 234 230 277 264 168 172 210 194 174 185 180 184 184 181 182 191 198 196 198 198 196 200 202 209 212 212
335 334 337 339 340 338 335 336 337 336 337 348 355 6 105 26 36 328 319 281 247 229 243 247 226 233 250 256 261 295 338 296 244 240 248 257 127 124 283 100 100 111 200 181 174 131 145 182 206 199 192 183 182 186 157 132 133 136 147 162 181 199 233 233 248 258 176 179 222 164 152 205 197 189 185 178 184 197 200 197 200 199 198 201 203 210 214 217
335 335 338 339 340 337 334 337 337 335 345 356 359 27 142 64 46 315 299 296 274 220 231 246 237 247 249 251 256 251 20 285 276 277 245 209 162 162 227 126 135 197 221 175 120 140 178 212 215 204 186 160 155 169 144 134 143 132 132 147 183 216 225 222 184 165 173 207 253 148 157 237 221 193 194 189 196 204 202 199 200 196 197 202 205 209 211 214
335 335 339 339 339 335 333 337 337 337 357 348 339 326 143 65 353 336 206 285 288 227 221 235 236 245 245 256 247 199 183 220 251 273 191 147 169 174 153 139 164 182 187 187 168 161 194 240 217 185 155 141 132 146 138 129 135 134 138 149 198 222 176 217 192 153 153 180 183 131 112 315 196 186 214 211 211 215 207 207 208 201 203 206 206 206 205 208
335 337 339 338 338 335 334 337 338 343 344 336 312 167 129 344 346 353 167 258 288 259 221 215 221 231 238 252 200 170 193 195 197 248 181 148 150 154 156 156 160 178 198 196 183 174 215 253 187 149 152 160 152 145 141 138 182 202 180 163 175 199 195 209 158 138 105 37 111 110 52 312 198 185 218 216 217 226 214 208 213 214 213 214 213 210 206 207
335 338 338 338 339 335 334 338 342 334 334 331 190 146 51 334 341 354 149 335 287 279 250 211 220 235 233 210 168 168 196 209 199 213 174 160 158 136 180 169 150 192 198 180 178 197 236 252 141 142 164 165 155 166 168 164 184 251 217 187 180 177 181 153 131 128 111 262 231 126 92 287 233 202 213 200 207 219 212 208 215 216 214 215 214 211 210 210
335 338 338 339 338 337 340 344 328 328 329 323 158 167 323 330 338 323 150 30 298 282 307 201 185 227 230 166 155 141 107 254 222 199 181 173 167 147 168 203 153 192 181 162 169 213 229 203 140 149 163 163 165 189 200 168 150 249 228 191 180 160 146 147 144 139 151 214 220 166 189 269 290 230 213 194 206 216 215 217 218 215 213 212 211 210 210 208
334 336 337 337 337 340 343 313 316 324 321 215 281 308 318 328 338 170 140 18 303 269 265 253 202 174 227 177 154 127 163 266 227 191 191 179 172 148 172 195 154 178 161 139 196 234 196 182 170 159 151 159 172 199 211 163 142 236 226 170 160 149 152 160 158 167 178 144 133 168 175 274 286 254 207 185 202 222 225 226 222 216 214 212 211 212 209 207
333 334 335 335 334 336 325 292 308 311 283 307 307 311 323 331 7 142 67 12 273 272 162 248 225 144 93 170 168 167 217 232 160 219 195 176 172 131 185 198 163 177 175 152 210 251 188 188 190 173 161 178 191 200 187 159 164 235 203 154 150 153 163 165 166 189 170 110 201 223 156 196 263 282 205 176 198 223 228 226 223 217 213 211 211 211 210 209
333 333 333 332 330 330 324 282 282 287 305 312 314 325 330 331 145 108 63 202 266 305 161 232 268 187 38 103 199 245 290 261 206 250 164 169 179 129 182 195 160 177 194 172 201 249 222 196 185 169 176 201 207 202 166 162 199 224 154 117 91 103 123 153 171 174 103 126 217 218 181 196 259 278 183 168 203 224 227 227 224 218 212 211 211 211 211 209
333 331 331 331 326 323 325 282 278 299 318 317 326 329 328 324 132 90 123 216 281 282 238 338 360 311 45 81 248 264 267 280 279 63 87 152 174 138 164 157 131 160 198 194 198 234 271 233 163 166 185 189 193 199 170 176 188 152 115 90 63 55 64 81 113 102 101 227 240 214 192 195 247 263 192 182 207 214 217 226 226 217 213 212 211 209 208 206
331 330 329 326 316 309 307 282 291 313 320 317 328 329 327 34 98 128 205 237 281 274 284 349 295 8 39 61 290 259 229 264 290 120 111 119 136 141 132 89 99 149 196 228 224 273 286 266 209 214 196 157 157 189 196 198 185 136 105 99 107 18 31 39 12 62 134 243 253 218 190 192 238 254 219 215 220 213 210 219 220 213 211 211 208 207 206 204
330 329 326 320 310 285 252 269 288 290 285 310 328 338 73 127 248 181 228 295 293 254 82 260 282 7 12 15 283 244 212 233 253 159 149 144 148 174 180 179 176 175 214 221 228 287 266 233 243 269 248 147 145 175 207 260 147 133 115 104 128 262 350 97 270 94 179 240 256 188 159 189 246 249 236 230 235 229 218 219 219 213 209 208 205 204 204 199
330 329 324 320 310 278 266 278 276 266 278 302 331 21 97 163 231 200 216 266 234 232 98 239 298 340 353 359 309 259 229 219 232 203 158 147 158 198 213 203 174 168 192 195 196 224 269 271 242 236 267 180 155 164 178 199 159 152 151 138 149 170 170 218 239 359 222 254 289 142 153 204 272 261 239 228 231 230 223 223 224 218 208 205 203 201 200 197
331 330 324 319 309 292 291 289 273 262 264 276 51 68 126 203 236 213 212 230 250 330 8 287 322 332 344 341 267 271 328 258 215 158 153 132 151 208 240 238 185 161 139 158 188 185 201 257 223 202 232 202 179 178 164 152 159 179 167 147 161 165 168 209 206 189 214 244 333 104 154 192 217 252 243 228 232 230 227 235 237 227 191 187 194 195 196 200
331 331 325 319 312 316 328 295 270 233 180 144 90 143 194 201 227 218 216 233 273 328 317 330 346 333 320 290 278 44 85 280 276 130 160 157 169 200 199 209 199 161 139 179 214 179 192 240 244 231 226 185 188 189 146 128 160 212 149 129 184 185 168 194 190 180 180 156 123 166 204 219 218 286 296 285 283 249 229 240 241 221 172 159 176 192 194 198
334 335 329 320 321 331 328 294 239 174 164 132 110 198 214 200 197 195 203 204 149 325 326 344 15 242 301 311 322 28 56 305 327 39 206 184 193 204 197 214 197 174 171 183 210 178 181 250 259 233 232 207 188 177 166 167 179 184 143 176 210 174 148 158 214 171 126 178 244 186 223 271 304 300 293 296 297 269 239 231 227 212 173 165 182 192 193 196
335 335 325 314 327 329 315 284 185 168 162 131 169 211 220 208 201 197 208 151 114 87 63 15 298 205 259 306 302 347 13 341 337 360 300 237 230 203 202 238 193 183 190 184 210 209 164 255 267 199 217 239 194 172 200 198 161 137 181 198 172 113 113 124 178 11 66 221 263 194 198 220 160 277 293 273 254 260 255 237 223 193 169 186 196 193 193 196
327 322 303 310 331 332 308 201 166 162 144 146 205 232 206 214 222 202 227 16 74 59 90 174 246 228 206 247 280 318 18 348 333 2 313 255 261 211 192 214 198 192 198 190 216 232 164 242 282 209 205 227 156 167 233 242 184 146 180 173 139 155 216 136 172 184 148 214 265 280 243 225 195 223 271 240 229 241 249 240 213 186 189 199 202 198 195 193
325 315 301 335 357 9 118 157 156 149 116 166 208 236 204 225 250 214 214 155 134 132 168 216 229 252 243 208 244 287 45 267 274 321 265 233 261 235 189 205 225 203 194 185 192 208 166 209 270 240 203 193 128 174 216 232 229 80 122 150 144 170 178 178 169 167 188 204 225 270 283 254 228 216 211 217 222 228 235 237 218 202 203 204 201 197 192 190
335 310 295 351 53 74 106 136 147 142 173 180 202 221 211 228 256 246 224 199 186 184 201 218 214 231 254 239 248 262 169 206 224 200 229 231 261 269 221 198 231 213 196 190 191 195 170 194 238 264 238 182 198 207 205 202 183 137 163 179 180 139 141 189 187 133 154 174 177 204 235 253 246 208 195 213 220 218 219 222 222 214 210 209 201 189 186 189
329 313 290 68 101 91 87 108 249 215 199 233 217 221 257 239 260 287 254 206 206 227 203 204 219 224 242 262 261 257 208 213 211 197 234 236 229 262 241 194 185 187 180 192 204 203 188 190 211 233 222 208 235 233 201 186 172 168 187 187 179 169 138 193 245 230 126 166 177 176 212 257 251 196 198 215 216 218 216 210 218 222 216 211 196 184 188 189
305 283 289 237 130 59 17 12 248 243 216 254 229 226 261 248 237 272 263 221 204 227 218 211 224 223 235 244 228 222 225 225 216 208 226 231 211 226 248 213 189 176 152 191 216 202 171 154 191 219 226 223 239 240 192 181 176 176 200 193 180 178 162 181 220 235 208 206 146 138 200 264 259 204 204 216 213 225 226 212 220 230 220 205 191 188 191 190
218 283 295 281 220 261 339 268 266 291 236 254 271 264 260 254 243 240 259 277 220 218 219 209 208 208 224 225 206 207 212 211 216 209 215 241 223 220 238 241 226 200 170 201 219 200 169 149 183 226 272 266 266 282 253 172 156 187 236 200 176 190 188 185 187 178 193 202 149 147 236 264 272 248 219 227 226 234 233 219 221 227 216 191 188 191 190 193
286 274 295 300 233 216 206 215 262 269 263 284 292 283 270 249 243 241 242 241 212 211 232 229 212 213 225 218 205 212 204 197 230 230 225 235 233 232 240 243 237 206 195 206 191 182 202 190 170 196 249 257 266 285 275 238 178 197 228 191 178 182 168 149 103 145 212 214 170 171 226 249 272 314 301 225 214 230 237 230 226 224 211 193 190 192 193 196
310 251 257 301 285 187 188 228 286 282 307 322 299 283 278 252 238 231 226 226 222 215 227 244 230 223 229 223 225 230 211 192 224 264 251 238 257 262 254 251 238 214 226 221 186 170 196 190 170 185 206 219 219 223 230 221 195 218 216 187 188 175 162 158 115 160 227 233 167 172 210 247 278 301 283 231 199 218 239 234 229 226 213 198 190 193 197 196
327 284 276 307 327 54 333 3 46 19 335 346 309 273 248 253 269 236 215 224 236 223 222 243 238 237 245 236 240 248 231 208 214 254 272 263 265 265 281 304 285 252 246 227 178 144 160 190 189 192 202 211 211 216 214 170 163 210 213 196 196 187 175 167 145 178 201 177 182 212 200 212 255 256 250 244 215 218 232 221 219 222 212 201 196 198 200 196
299 277 318 333 324 354 19 39 45 21 326 329 305 284 265 262 285 275 223 222 240 227 224 236 221 215 227 221 229 243 233 223 226 237 249 246 252 278 308 307 271 257 275 212 168 132 115 223 213 200 209 216 214 213 202 170 179 199 201 200 202 194 177 170 187 203 167 146 232 251 195 188 229 228 225 235 225 217 221 213 215 220 211 200 191 187 192 195
283 273 350 356 304 308 340 344 355 337 299 285 270 278 290 277 274 294 284 298 306 243 205 256 239 224 221 215 220 229 214 217 232 234 230 227 251 323 327 302 263 312 34 42 187 147 152 221 213 199 221 229 225 219 192 180 201 197 192 202 201 192 180 184 205 201 162 174 231 230 182 193 224 223 218 222 213 206 209 206 207 213 207 189 171 174 191 198
306 282 341 359 313 292 295 304 313 304 289 288 268 254 277 277 274 319 324 314 313 268 190 249 272 255 245 240 242 233 210 205 218 227 221 209 184 40 350 310 289 13 44 16 282 150 160 231 208 191 223 236 233 228 195 187 215 218 209 210 198 189 188 195 211 200 182 207 227 198 188 208 219 213 217 224 209 197 194 175 179 196 195 183 177 187 200 201
343 300 328 348 309 289 284 284 291 297 297 285 259 265 308 295 311 352 323 261 270 286 212 226 286 299 296 272 249 229 215 201 207 226 218 207 211 168 161 247 273 338 6 3 307 47 146 251 229 169 216 243 235 228 212 198 212 227 233 231 214 196 193 205 219 203 190 228 240 170 186 225 239 218 218 225 141 140 156 173 190 201 192 181 186 198 202 197
324 289 293 310 300 289 286 292 294 300 299 270 244 337 344 325 341 340 305 235 221 252 270 317 314 314 307 276 249 229 239 281 257 252 246 239 247 230 192 199 156 350 337 326 306 356 135 246 331 103 193 254 231 218 222 208 207 233 244 242 231 212 200 209 207 184 185 210 205 134 181 235 247 217 198 170 138 160 189 196 196 199 189 185 196 201 196 192
330 303 291 289 289 285 292 304 292 261 272 286 360 357 325 300 318 325 302 266 241 240 256 335 325 317 306 289 278 299 319 308 276 264 263 262 274 281 264 256 109 100 295 305 328 322 140 149 337 121 188 261 242 210 209 184 185 244 245 232 227 217 208 213 202 189 191 178 162 182 214 234 228 178 176 190 182 193 208 202 190 191 190 191 196 193 188 193